TimePDT,TemperatureF,Dew PointF,Humidity,Sea Level PressureIn,VisibilityMPH,Wind Direction,Wind SpeedMPH,Gust SpeedMPH,PrecipitationIn,Events,Conditions,WindDirDegrees,DateUTC
12:53 AM,64.0,55.9,75,29.88,10.0,Calm,Calm,-,N/A,,Clear,0,2013-09-01 07:53:00
1:53 AM,63.0,55.0,75,29.89,10.0,Calm,Calm,-,N/A,,Clear,0,2013-09-01 08:53:00
2:53 AM,62.1,53.1,72,29.89,10.0,Calm,Calm,-,N/A,,Clear,0,2013-09-01 09:53:00
3:53 AM,60.1,53.1,78,29.90,10.0,Calm,Calm,-,N/A,,Clear,0,2013-09-01 10:53:00
4:53 AM,59.0,53.1,81,29.90,10.0,SSW,3.5,-,N/A,,Clear,210,2013-09-01 11:53:00
5:53 AM,57.9,53.1,84,29.91,10.0,Calm,Calm,-,N/A,,Clear,0,2013-09-01 12:53:00
6:53 AM,57.0,54.0,89,29.91,10.0,Calm,Calm,-,N/A,,Clear,0,2013-09-01 13:53:00
7:53 AM,60.1,54.0,80,29.91,10.0,South,5.8,-,N/A,,Clear,170,2013-09-01 14:53:00
8:53 AM,62.1,55.0,78,29.92,10.0,SW,4.6,-,N/A,,Clear,220,2013-09-01 15:53:00
9:53 AM,66.9,55.0,66,29.91,10.0,Variable,3.5,-,N/A,,Clear,0,2013-09-01 16:53:00
10:53 AM,69.1,55.0,61,29.90,10.0,SW,5.8,-,N/A,,Clear,230,2013-09-01 17:53:00
11:53 AM,72.0,55.0,55,29.89,10.0,Calm,Calm,-,N/A,,Clear,0,2013-09-01 18:53:00
12:53 PM,75.0,55.0,50,29.88,10.0,Calm,Calm,-,N/A,,Clear,0,2013-09-01 19:53:00
1:53 PM,78.1,54.0,43,29.86,10.0,WSW,6.9,-,N/A,,Clear,250,2013-09-01 20:53:00
2:53 PM,81.0,51.1,35,29.84,10.0,Variable,5.8,-,N/A,,Clear,0,2013-09-01 21:53:00
3:53 PM,82.0,48.0,30,29.82,10.0,WSW,8.1,-,N/A,,Clear,240,2013-09-01 22:53:00
4:53 PM,82.9,51.1,33,29.81,10.0,Variable,4.6,-,N/A,,Clear,0,2013-09-01 23:53:00
5:53 PM,82.0,52.0,35,29.80,10.0,Variable,3.5,-,N/A,,Clear,0,2013-09-02 00:53:00
6:53 PM,80.1,54.0,40,29.80,10.0,Variable,3.5,-,N/A,,Clear,0,2013-09-02 01:53:00
7:53 PM,75.9,54.0,46,29.82,10.0,Variable,5.8,-,N/A,,Clear,0,2013-09-02 02:53:00
8:53 PM,72.0,53.1,51,29.84,10.0,West,3.5,-,N/A,,Clear,260,2013-09-02 03:53:00
9:53 PM,66.9,53.1,61,29.87,10.0,Calm,Calm,-,N/A,,Clear,0,2013-09-02 04:53:00
10:53 PM,63.0,53.1,70,29.88,10.0,Calm,Calm,-,N/A,,Partly Cloudy,0,2013-09-02 05:53:00
11:53 PM,66.9,55.0,66,29.88,10.0,Calm,Calm,-,N/A,,Overcast,0,2013-09-02 06:53:00